Location: *
(51.0333°S, 178.4667°E)
Time: 14:33:48
(UTC+00:00)

CZ-4 R/B - Pass Details

Date: 23 February 2020
Orbit: 531 x 599 km, 97.8° (Epoch: 06 April)

Event Time Altitude Azimuth Distance (km) Brightness Sun altitude
Rises 09:10:47 0° 182° (S) 2,816 5.6 -16.6°
Reaches altitude 10° 09:13:58 10° 208° (SSW) 1,924 5.2 -17.0°
Maximum altitude 09:15:55 13° 236° (WSW) 1,729 5.0 -17.2°
Drops below altitude 10° 09:17:52 10° 264° (W) 1,932 4.9 -17.5°
Sets 09:21:05 0° 291° (WNW) 2,837 5.3 -17.8°
